Theta_e
307 309 307 307 307 306 306 306 307 307 307 307 308 307 307 307 307 307 306 306 306 307 307 308 309 310 312 302 303 320 322 321 314 317 314 312 308 307 303 306 307 307 308 310 311 311 311
306 307 307 307 306 306 307 306 306 306 306 306 306 306 306 306 306 307 306 306 306 306 307 308 308 309 307 297 308 310 310 309 310 311 314 314 309 311 306 306 305 308 308 309 310 310 310
306 307 307 306 306 306 306 307 306 306 306 306 306 305 305 306 306 306 305 306 306 307 308 308 308 308 303 301 311 312 310 308 309 309 308 315 314 309 309 306 309 307 304 306 307 309 308
308 307 307 306 305 305 306 306 305 305 305 305 305 305 305 305 305 305 305 307 307 308 309 308 308 307 300 309 310 307 309 307 308 308 307 311 315 312 308 311 308 303 304 299 305 307 308
305 306 306 305 304 306 306 305 305 305 305 304 304 305 305 305 305 305 306 307 308 309 310 309 309 305 298 306 304 307 309 308 309 307 307 310 313 309 308 301 300 302 297 299 301 307 306
306 305 305 305 304 305 305 305 305 304 304 304 304 304 303 303 305 305 306 306 310 309 308 310 308 300 303 297 302 305 308 307 305 311 304 304 307 303 302 301 292 296 297 300 300 305 306
304 305 304 304 304 305 304 304 304 303 305 304 304 303 303 304 304 305 305 308 302 303 301 296 297 296 299 303 305 302 305 304 307 307 299 301 299 297 299 301 301 300 299 300 304 306 305
304 304 304 304 304 303 303 304 303 303 304 303 302 303 303 304 304 305 307 300 298 300 292 300 299 299 302 304 297 300 304 299 298 297 302 298 295 301 303 302 299 299 298 299 302 305 305
302 303 303 304 303 303 303 303 303 303 303 303 303 304 304 304 305 304 303 300 306 305 295 296 298 297 300 303 298 298 300 299 296 295 298 295 296 301 300 299 298 297 297 298 298 302 303
302 303 303 303 303 303 303 303 303 302 302 302 303 304 304 305 302 303 300 303 306 307 292 290 294 299 302 303 297 304 302 298 297 293 297 298 300 297 298 297 300 295 300 300 299 298 294
302 302 301 302 303 302 303 303 302 301 302 302 303 304 304 303 303 300 301 305 307 304 281 291 294 305 302 297 298 298 303 298 291 294 298 295 297 296 294 298 301 298 302 299 299 298 298
302 303 301 302 303 302 303 302 302 301 301 302 303 303 304 305 306 305 307 307 305 291 278 287 294 294 294 296 297 300 300 301 299 294 295 295 301 300 298 299 300 303 300 299 298 296 290
301 301 302 302 301 301 301 301 301 300 301 302 303 303 303 304 302 309 307 303 290 282 289 287 289 293 292 292 294 293 293 292 290 285 286 292 293 301 301 297 300 299 296 289 287 287 286
299 299 300 301 300 300 300 301 300 300 301 302 303 303 301 306 309 308 304 296 281 283 285 291 291 290 288 292 292 291 290 289 294 291 288 285 283 292 299 298 296 296 295 289 283 286 289
299 299 300 300 300 300 301 301 300 300 302 303 303 306 307 306 309 306 299 285 285 286 289 288 289 286 288 290 291 290 290 289 292 294 288 287 287 295 295 296 299 295 293 298 291 293 290
300 299 299 299 299 300 300 300 300 302 303 304 302 303 301 309 307 301 294 283 287 290 291 290 283 287 285 288 287 288 289 292 291 295 298 293 286 294 296 297 298 295 299 291 293 284 283
300 299 298 299 299 299 300 299 301 303 303 302 301 298 302 306 306 297 287 287 289 292 293 289 288 287 288 288 289 288 288 292 293 293 295 294 291 290 294 292 293 294 293 294 294 292 286
299 298 298 298 298 298 299 299 301 303 302 299 301 289 303 306 292 293 286 289 290 291 292 291 291 290 288 289 288 288 288 291 297 295 289 292 290 286 289 296 297 296 293 295 291 287 291
299 299 299 298 298 297 298 299 301 302 301 301 296 297 303 302 286 285 290 289 290 289 289 289 289 291 292 288 284 289 290 295 297 294 291 293 288 282 286 292 295 292 294 296 296 296 290
299 299 299 298 298 297 298 299 300 301 301 300 296 285 294 294 294 287 285 285 285 290 288 289 289 291 289 287 289 287 289 293 296 294 295 295 289 285 282 285 288 287 291 293 292 288 289
300 299 299 299 298 298 298 299 300 301 301 300 297 288 293 285 287 289 287 286 284 284 288 290 287 288 287 282 284 284 288 289 292 294 294 293 286 288 289 291 290 289 289 290 289 291 287
300 300 299 300 298 298 298 299 299 300 301 299 289 292 293 291 290 288 286 285 285 285 285 285 285 287 287 283 284 282 285 286 286 291 291 294 285 289 286 289 290 287 289 291 291 291 291
300 300 299 299 299 298 298 299 299 300 300 300 301 297 294 290 289 288 288 287 285 287 288 288 287 286 285 287 289 290 290 290 289 287 287 287 286 284 281 287 286 282 288 290 290 292 291
300 300 300 299 299 298 299 299 298 300 300 301 299 298 291 286 289 288 288 288 287 288 286 288 289 287 289 293 292 291 291 290 289 289 291 285 285 284 281 284 276 288 293 293 291 292 294
300 300 300 300 299 298 299 298 298 298 300 300 299 296 291 285 289 289 288 288 289 290 288 289 290 291 294 290 284 282 284 286 288 291 291 291 288 283 279 280 284 287 290 290 289 289 295
299 300 300 300 299 299 298 298 298 297 298 301 299 299 293 286 289 290 288 289 287 288 288 289 292 295 292 286 283 277 277 281 281 285 293 292 292 285 282 277 275 286 292 295 293 285 296
300 300 300 300 300 299 299 298 298 297 297 299 299 301 296 287 291 292 289 288 291 288 286 288 289 288 291 284 280 279 279 284 279 280 282 286 286 283 282 280 284 291 295 297 284 287 297
300 300 300 300 300 300 299 299 298 298 297 297 297 302 294 289 291 294 294 290 290 288 283 288 286 288 286 281 282 283 283 285 283 286 285 284 282 283 284 280 278 295 293 285 291 295 295
300 299 299 299 299 300 300 299 298 298 298 297 292 299 301 291 291 297 296 297 296 294 290 290 287 287 289 285 285 285 282 284 282 278 288 282 287 285 286 287 293 295 292 295 296 295 297
Wind_Speed
8 10 9 9 9 10 10 10 11 11 12 12 13 14 15 17 18 18 19 19 19 19 18 17 19 21 15 5 11 12 2 6 14 10 9 11 15 18 24 18 21 23 21 20 21 17 12
7 8 8 8 9 9 10 10 10 11 12 13 14 14 15 16 17 18 19 20 20 20 19 17 16 17 10 11 6 7 9 13 14 11 14 9 11 15 23 22 23 19 20 23 23 18 19
4 6 6 7 8 9 8 9 10 11 12 12 13 14 15 16 17 19 22 22 21 21 19 16 13 10 11 17 17 17 15 14 14 13 13 14 9 11 6 17 21 19 23 18 22 22 20
7 6 7 7 8 8 8 8 9 11 12 13 14 14 15 16 18 21 23 23 22 19 13 9 9 9 8 6 11 13 13 15 16 17 18 15 15 14 17 16 14 18 23 21 25 23 23
4 5 6 7 7 8 8 8 9 10 12 13 14 15 16 18 20 21 24 23 22 13 8 6 9 6 6 0 6 12 15 16 14 15 16 15 13 18 13 15 17 19 20 28 27 25 25
4 4 5 6 6 7 8 9 10 11 12 13 13 15 18 19 20 23 24 26 9 13 8 5 5 8 8 14 19 15 15 13 15 16 16 18 13 15 18 17 22 21 29 28 27 23 22
4 3 3 4 5 6 8 9 11 11 12 14 13 15 17 19 20 21 18 6 2 7 8 7 12 11 15 18 19 17 15 14 15 15 21 23 21 23 28 27 25 26 26 27 21 25 23
3 3 3 4 3 5 6 8 10 11 11 13 14 14 16 17 19 19 11 7 7 4 9 9 7 8 9 12 13 14 13 10 16 21 22 24 27 29 27 27 27 29 28 28 24 15 20
2 2 2 4 3 5 5 7 10 11 11 12 13 15 15 17 18 11 7 10 7 5 7 2 3 4 8 10 11 15 12 17 19 21 23 27 28 27 31 29 28 28 28 26 25 17 16
1 2 3 4 4 4 5 7 9 11 11 10 12 14 14 20 11 8 6 9 8 7 6 6 3 4 8 12 8 20 6 19 18 21 25 22 25 31 30 33 28 28 23 23 25 22 19
2 2 3 3 1 4 5 5 7 10 11 11 13 14 15 14 8 7 8 8 8 3 2 6 5 5 11 11 15 6 3 11 20 22 15 20 23 25 32 27 30 27 19 19 22 23 20
3 3 1 2 4 5 5 4 7 9 10 11 13 14 14 4 5 8 9 9 5 4 4 7 4 12 17 13 18 18 23 6 17 21 23 23 25 24 20 27 28 22 23 21 18 17 20
2 1 2 1 3 3 3 6 7 9 10 11 13 15 12 6 7 9 7 6 2 3 6 4 10 15 22 13 11 7 18 18 10 15 19 22 24 22 12 17 18 24 17 15 19 17 19
1 2 2 2 2 3 4 5 7 9 10 11 14 16 3 4 7 9 5 2 1 1 7 12 13 18 19 10 10 16 8 18 19 16 15 19 23 25 16 19 18 23 24 18 22 20 20
4 1 3 2 2 3 6 3 6 8 10 13 18 3 1 6 7 5 7 0 2 6 10 11 16 10 9 10 15 18 11 7 13 16 16 17 19 17 26 27 21 22 23 26 28 27 20
6 4 3 2 3 4 5 5 6 10 11 11 6 3 7 7 3 7 2 1 2 4 9 8 7 6 13 18 18 17 12 6 7 14 13 15 19 16 14 12 18 26 20 19 18 25 29
7 6 4 3 3 3 4 5 8 11 13 7 6 3 6 6 6 4 1 4 5 3 7 7 10 16 16 17 14 17 8 6 6 1 12 14 11 18 16 17 17 15 20 21 19 17 21
8 7 6 5 3 4 4 5 8 11 10 8 2 1 4 3 0 2 2 4 4 8 8 10 8 11 12 13 13 17 19 14 11 8 4 2 7 13 22 20 15 22 15 12 17 24 18
9 8 8 7 6 4 4 4 6 7 8 5 3 1 3 3 1 2 5 9 9 12 7 4 8 13 10 14 10 12 15 15 17 15 8 6 3 9 12 17 17 15 20 15 13 18 21
10 9 9 8 6 5 4 4 4 4 6 6 3 2 1 1 1 5 5 7 4 3 11 10 10 13 11 13 15 9 17 9 16 17 8 5 12 15 15 15 7 15 19 22 17 10 13
12 10 10 11 8 6 5 4 4 2 5 6 1 3 2 2 4 7 3 6 9 6 4 8 6 8 9 8 15 18 12 20 20 16 13 7 11 15 19 21 18 17 19 19 22 21 12
12 12 10 9 9 7 6 5 4 3 6 6 5 3 4 6 5 7 3 5 8 7 2 7 12 13 13 13 16 22 20 18 13 14 14 13 11 15 16 18 20 19 19 20 20 22 23
13 13 12 9 8 9 7 6 5 5 7 2 1 3 3 2 6 5 8 7 6 6 5 6 8 12 16 17 16 18 19 19 20 21 19 20 17 16 20 19 18 12 21 21 21 22 22
15 13 13 12 10 9 9 7 4 4 8 4 4 3 2 4 6 7 8 9 12 12 14 15 14 15 14 17 17 18 20 23 24 25 21 21 20 15 15 16 21 16 19 22 23 22 22
15 14 15 14 13 11 9 9 7 5 4 7 1 3 1 4 7 11 13 12 12 12 13 14 12 9 8 14 13 11 9 12 18 21 19 21 18 12 13 16 22 25 22 20 22 22 19
16 16 15 16 14 14 12 11 10 8 6 5 5 4 2 3 5 10 10 9 9 11 11 8 1 7 8 7 6 7 5 15 7 4 8 12 18 13 13 16 16 15 16 18 13 11 12
16 16 16 15 16 16 15 13 12 11 10 7 2 4 3 4 9 11 8 7 5 6 7 12 9 6 3 4 6 8 11 14 8 12 16 8 7 15 16 15 12 16 17 20 17 8 20
16 15 14 14 14 16 16 15 14 14 12 9 5 8 5 4 12 18 17 13 10 8 9 8 8 3 4 5 5 5 5 4 7 11 10 14 11 8 8 10 17 15 12 6 11 19 17
17 15 15 14 12 13 16 17 15 15 14 11 7 6 8 6 9 16 16 17 18 17 12 8 9 6 2 4 4 5 6 9 15 16 17 13 8 8 9 9 20 15 4 13 18 17 14
Wind_Direction
52 69 59 45 38 30 32 28 26 22 19 13 10 5 359 353 348 343 339 334 330 328 327 327 327 325 322 263 267 116 221 279 308 289 287 284 248 240 242 247 248 236 244 250 244 250 253
68 59 54 44 35 25 20 21 23 18 12 6 1 357 352 347 344 339 333 327 322 319 316 315 317 315 294 262 33 345 328 309 284 285 281 262 259 282 260 251 250 253 250 246 258 243 239
58 60 58 42 31 18 13 29 21 13 6 0 358 357 353 347 343 334 328 323 317 309 302 301 299 289 274 254 322 310 301 290 288 283 277 279 275 266 274 259 255 251 261 249 249 246 239
57 52 49 37 22 12 17 27 21 12 5 359 357 353 349 347 338 331 325 317 311 305 294 279 260 264 271 316 322 289 287 277 260 255 254 265 287 268 260 284 267 244 242 249 236 233 231
52 54 41 29 18 6 23 24 16 6 1 356 355 353 352 345 336 330 321 311 306 290 270 234 229 241 287 216 306 331 316 309 288 263 233 244 242 247 233 234 249 235 239 229 244 236 222
55 51 30 24 7 7 10 17 15 2 355 355 354 355 351 344 338 329 317 295 287 274 265 210 250 250 217 342 313 308 296 259 273 275 236 225 228 234 224 219 224 224 226 242 247 220 227
27 28 5 14 353 20 9 16 6 359 353 359 355 351 346 340 338 318 311 339 273 200 15 337 318 296 304 317 301 291 286 294 269 244 238 214 221 222 226 224 238 252 252 251 237 242 242
37 17 355 335 8 13 11 11 5 360 2 354 350 345 342 337 332 306 308 44 50 352 313 290 278 272 301 336 304 308 263 261 237 240 230 235 221 228 236 235 239 246 249 253 260 255 255
341 322 311 338 347 360 355 358 1 356 353 347 345 340 333 330 321 292 16 29 357 347 273 314 331 313 339 319 326 312 293 259 261 259 235 238 236 223 238 236 236 241 245 246 249 233 248
32 346 334 323 320 324 332 345 352 352 349 345 339 340 345 325 281 336 56 353 353 325 276 64 30 77 317 324 265 327 304 262 265 264 254 247 248 246 222 238 235 238 234 256 260 253 236
251 289 297 311 344 336 322 327 339 345 341 337 336 336 334 328 315 334 341 340 327 265 24 31 12 351 283 276 287 285 304 234 249 269 290 247 234 245 247 237 229 244 245 239 249 257 258
209 310 293 19 320 314 318 325 329 334 336 332 329 329 326 255 266 357 345 320 263 247 43 330 329 336 314 323 15 11 312 234 271 249 263 272 285 245 254 250 253 241 230 236 241 252 241
213 347 111 91 42 4 343 322 320 335 327 324 322 321 304 301 353 338 318 254 253 19 334 354 335 330 317 342 12 41 341 298 245 222 247 250 256 262 214 271 248 239 232 228 222 218 240
250 274 300 308 333 334 324 307 323 328 326 323 314 311 70 20 331 320 265 241 51 315 327 340 325 312 293 320 345 328 24 336 324 258 265 231 244 238 245 232 244 217 230 234 231 228 231
237 259 321 356 211 315 332 323 333 326 323 320 298 171 111 355 327 291 265 267 126 326 357 333 313 292 311 313 341 332 339 334 334 324 315 289 257 254 222 219 230 246 227 232 254 264 263
216 237 275 271 298 305 311 340 337 327 323 322 305 246 50 352 331 264 332 341 262 316 320 318 311 297 313 330 324 322 324 173 336 350 336 308 309 284 303 219 234 234 253 230 226 246 254
224 237 246 257 276 297 294 330 342 328 321 300 265 236 54 3 288 251 335 257 287 321 310 324 314 308 311 307 310 309 319 62 26 345 338 341 293 279 270 251 246 200 229 250 268 232 238
223 219 229 230 253 274 297 320 337 322 313 269 265 54 62 313 281 25 252 316 346 286 307 269 272 290 294 322 309 308 300 301 26 354 323 180 289 298 284 277 250 270 272 299 239 249 253
221 225 222 243 239 249 287 303 333 332 320 302 65 359 93 267 306 208 276 287 285 287 299 306 288 302 334 305 300 298 313 320 9 344 340 339 209 306 295 226 249 267 273 222 262 286 266
219 223 223 234 231 238 257 278 319 322 284 280 163 133 301 117 240 285 305 289 273 216 287 274 286 292 286 313 298 289 297 323 333 315 10 291 256 258 278 293 252 300 304 295 266 247 277
221 226 233 228 232 232 250 262 307 281 266 268 45 233 30 192 217 257 267 285 294 296 246 291 296 276 303 300 302 286 292 306 303 297 300 278 261 256 273 283 289 274 280 279 285 275 240
215 222 226 237 226 222 245 249 281 265 257 260 140 196 182 285 258 239 200 266 282 293 245 285 292 294 296 295 290 293 295 297 299 304 295 299 282 292 284 283 285 288 280 267 272 274 271
220 216 220 223 232 210 226 235 256 261 245 349 311 116 312 234 232 235 230 237 278 313 295 273 294 302 293 297 310 306 291 281 276 276 276 285 281 286 284 296 285 267 251 260 266 267 267
225 221 220 220 220 232 227 216 237 250 244 254 234 283 185 263 240 241 251 264 276 280 288 293 290 282 290 311 304 287 272 257 256 256 250 253 262 276 277 288 269 261 260 258 261 262 259
219 222 219 219 214 219 223 198 220 221 275 269 148 254 229 261 273 275 259 265 280 276 260 274 284 303 314 305 293 306 287 259 251 248 238 225 242 260 257 260 276 273 283 288 285 278 286
220 219 222 216 210 213 211 214 206 208 227 263 243 244 217 280 240 264 282 275 290 293 301 292 30 272 295 290 271 259 279 313 291 279 233 225 218 232 252 266 269 280 289 310 17 293 17
218 217 219 217 210 210 213 213 210 207 211 234 227 257 267 243 264 261 254 283 309 286 278 285 286 300 234 249 254 265 267 266 265 275 278 260 243 229 237 249 264 276 12 318 254 332 331
216 212 215 216 211 208 210 210 208 207 201 217 228 193 197 257 273 274 265 262 263 261 264 279 317 192 216 248 258 265 276 311 286 283 298 286 279 254 239 259 262 23 357 357 306 302 306
214 210 211 211 214 209 211 207 210 208 206 206 234 196 209 239 269 311 294 283 270 265 261 251 248 273 314 281 298 326 301 293 285 279 285 271 273 315 294 296 313 294 334 257 301 309 332